Superior, WI

12:09 AM CST on February 26, 2017 (GMT -0600)
Bong

Weather History for KSUW - November, 2012

Change the Weather History Date:

Wednesday, November 21, 2012

  Actual Average Record
Temperature  
Mean Temperature 36 °F -  
Max Temperature 47 °F 35 °F 67 °F (1990)
Min Temperature 26 °F 20 °F -3 °F (2014)
Degree Days  
Heating Degree Days 28    
Moisture  
Dew Point 35 °F    
Average Humidity 96    
Maximum Humidity 100    
Minimum Humidity 71    
Precipitation  
Precipitation 0.00 in - - ()
Sea Level Pressure  
Sea Level Pressure 29.88 in    
Wind  
Wind Speed 1 mph (NE)    
Max Wind Speed 9 mph    
Max Gust Speed -    
Visibility 2 miles    
Events Fog    
Averages and records for this station are not official NWS values.
T = Trace of Precipitation, MM = Missing Value Source: NWS Daily Summary

Daily Weather History Graph

Daily Weather History Graph

Search for Another Location

Airport or City:

Trip Planner

Search our weather history database for the weather conditions in past years. The results will help you decide how hot, cold, wet, or windy it might be!

Date:

Astronomy

Nov. 21, 2012 Rise Set
Actual Time 7:19 AM CST 4:28 PM CST
Civil Twilight 6:46 AM CST 5:01 PM CST
Nautical Twilight 6:09 AM CST 5:39 PM CST
Astronomical Twilight 5:33 AM CST 6:15 PM CST
Moon 1:05 PM CST (11/21) 12:16 AM CST (11/21)
Length of Visible Light 10h 15m
Length of Day
9h 08m
First Quarter, 62% of the Moon is Illuminated
Nov 21
First Quarter
Nov 28
Full
Dec 6
Last Quarter
Dec 13
New
Dec 19
First Quarter

Hourly Weather History & Observations

Time (CST) Temp. Windchill Dew Point Humidity Pressure Visibility Wind Dir Wind Speed Gust Speed Precip Events Conditions
12:15 AM 34.3 °F - 34.3 °F 100% 30.04 in 0.2 mi Calm Calm - N/A Fog Fog
12:35 AM 33.8 °F - 33.8 °F 100% 30.03 in 0.2 mi Calm Calm - N/A Fog Fog
12:55 AM 33.3 °F - 33.3 °F 100% 30.03 in 0.2 mi Calm Calm - N/A Fog Fog
1:15 AM 32.0 °F - 32.0 °F 100% 30.02 in 0.2 mi Calm Calm - N/A Fog Fog
1:35 AM 31.8 °F - 31.8 °F 100% 30.01 in 0.2 mi Calm Calm - N/A Fog Fog
1:55 AM 31.1 °F - 31.1 °F 100% 30.01 in 0.2 mi Calm Calm - N/A Fog Light Freezing Fog
2:15 AM 30.7 °F - 30.7 °F 100% 30.00 in 0.2 mi Calm Calm - N/A Fog Light Freezing Fog
2:35 AM 32.0 °F 28.7 °F 32.0 °F 100% 29.99 in 0.2 mi North 3.5 mph - N/A Fog Fog
2:55 AM 33.8 °F - 33.8 °F 100% 29.98 in 0.2 mi Calm Calm - N/A Fog Fog
3:15 AM 34.7 °F 31.8 °F 34.7 °F 100% 29.98 in 0.2 mi North 3.5 mph - N/A Fog Fog
3:35 AM 34.0 °F - 34.0 °F 100% 29.97 in 0.2 mi Calm Calm - N/A Fog Fog
3:55 AM 32.7 °F - 32.7 °F 100% 29.97 in 0.2 mi Calm Calm - N/A Fog Fog
4:15 AM 31.6 °F - 31.6 °F 100% 29.96 in 0.2 mi Calm Calm - N/A Fog Fog
4:35 AM 31.1 °F - 31.1 °F 100% 29.95 in 0.2 mi Calm Calm - N/A Fog Light Freezing Fog
4:55 AM 30.0 °F - 30.0 °F 100% 29.96 in 0.2 mi Calm Calm - N/A Fog Light Freezing Fog
5:15 AM 29.8 °F - 29.8 °F 100% 29.95 in 0.5 mi Calm Calm - N/A Fog Light Freezing Fog
5:35 AM 28.8 °F - 28.8 °F 100% 29.95 in 0.2 mi Calm Calm - N/A Fog Light Freezing Fog
5:55 AM 27.1 °F - 27.1 °F 100% 29.94 in 0.2 mi Calm Calm - N/A Fog Light Freezing Fog
6:15 AM 27.9 °F - 27.9 °F 100% 29.95 in 0.5 mi Calm Calm - N/A Fog Light Freezing Fog
6:35 AM 27.5 °F - 27.5 °F 100% 29.95 in 0.5 mi Calm Calm - N/A Fog Light Freezing Fog
6:55 AM 26.4 °F - 26.4 °F 100% 29.94 in 0.2 mi Calm Calm - N/A Fog Light Freezing Fog
7:15 AM 28.4 °F - 28.4 °F 100% 29.94 in 0.2 mi Calm Calm - N/A Fog Light Freezing Fog
7:35 AM 29.3 °F - 29.3 °F 100% 29.94 in 0.2 mi Calm Calm - N/A Fog Light Freezing Fog
7:55 AM 29.7 °F - 29.7 °F 100% 29.94 in 0.2 mi Calm Calm - N/A Fog Light Freezing Fog
8:15 AM 30.2 °F - 30.2 °F 100% 29.94 in 0.2 mi Calm Calm - N/A Fog Light Freezing Fog
8:35 AM 31.8 °F - 31.8 °F 100% 29.94 in 0.2 mi Calm Calm - N/A Fog Fog
8:55 AM 33.3 °F - 33.3 °F 100% 29.94 in 0.2 mi Calm Calm - N/A Fog Fog
10:55 AM 38.8 °F - 38.8 °F 100% 29.93 in 2.5 mi Calm Calm - N/A   Unknown
11:15 AM 38.8 °F - 38.5 °F 99% 29.92 in 4.0 mi Calm Calm - N/A   Mostly Cloudy
11:35 AM 40.1 °F - 38.7 °F 95% 29.91 in 5.0 mi Calm Calm - N/A   Scattered Clouds
11:55 AM 41.7 °F - 38.3 °F 88% 29.90 in 7.0 mi Calm Calm - N/A   Clear
12:15 PM 42.6 °F - 37.4 °F 82% 29.90 in 10.0 mi Calm Calm - N/A   Clear
12:35 PM 43.7 °F 42.1 °F 39.0 °F 84% 29.89 in 7.0 mi NE 3.5 mph - N/A   Clear
12:55 PM 43.0 °F 41.3 °F 38.5 °F 84% 29.88 in 7.0 mi ENE 3.5 mph - N/A   Clear
1:15 PM 43.3 °F - 38.1 °F 82% 29.89 in 7.0 mi Calm Calm - N/A   Clear
1:35 PM 43.7 °F - 37.8 °F 80% 29.88 in 7.0 mi Calm Calm - N/A   Clear
1:55 PM 44.6 °F - 37.8 °F 77% 29.87 in 7.0 mi Calm Calm - N/A   Clear
2:15 PM 46.2 °F - 37.8 °F 72% 29.87 in 7.0 mi Calm Calm - N/A   Clear
2:35 PM 47.1 °F - 38.3 °F 71% 29.86 in 7.0 mi Calm Calm - N/A   Clear
2:55 PM 45.3 °F 44.0 °F 38.3 °F 76% 29.85 in 7.0 mi East 3.5 mph - N/A   Clear
3:15 PM 43.7 °F 41.1 °F 38.1 °F 81% 29.85 in 10.0 mi East 4.6 mph - N/A   Clear
3:35 PM 42.8 °F 40.1 °F 37.8 °F 82% 29.85 in 7.0 mi East 4.6 mph - N/A   Clear
3:55 PM 41.0 °F 38.0 °F 37.4 °F 87% 29.86 in 5.0 mi ENE 4.6 mph - N/A   Clear
4:15 PM 39.0 °F 36.8 °F 36.9 °F 92% 29.86 in 5.0 mi NE 3.5 mph - N/A   Clear
4:35 PM 38.3 °F - 37.2 °F 96% 29.86 in 4.0 mi Calm Calm - N/A   Clear
4:55 PM 36.5 °F - 36.0 °F 98% 29.85 in 2.0 mi Calm Calm - N/A   Clear
5:15 PM 35.1 °F - 34.9 °F 99% 29.84 in 1.2 mi Calm Calm - N/A   Mist
5:35 PM 32.0 °F 28.7 °F 32.0 °F 100% 29.84 in 0.2 mi NNE 3.5 mph - N/A Fog Fog
5:55 PM 35.6 °F 32.8 °F 35.6 °F 100% 29.83 in 0.5 mi NNE 3.5 mph - N/A Fog Fog
6:15 PM 35.6 °F 31.7 °F 35.6 °F 100% 29.82 in 1.2 mi NNE 4.6 mph - N/A   Scattered Clouds
6:35 PM 35.6 °F - 35.6 °F 100% 29.81 in 1.5 mi Calm Calm - N/A   Mist
6:55 PM 35.1 °F 31.0 °F 35.1 °F 100% 29.80 in 1.2 mi NNE 4.6 mph - N/A   Mist
7:15 PM 35.6 °F 31.7 °F 35.6 °F 100% 29.79 in 1.5 mi NE 4.6 mph - N/A   Mist
7:35 PM 36.0 °F 32.1 °F 36.0 °F 100% 29.78 in 1.0 mi NNE 4.6 mph - N/A   Mist
7:55 PM 36.9 °F 32.2 °F 36.9 °F 100% 29.78 in 1.8 mi NNE 5.8 mph - N/A   Mist
8:15 PM 37.4 °F 32.1 °F 37.4 °F 100% 29.77 in 2.0 mi NE 6.9 mph - N/A   Clear
8:35 PM 37.4 °F 32.8 °F 37.4 °F 100% 29.76 in 2.0 mi NE 5.8 mph - N/A   Scattered Clouds
8:55 PM 37.8 °F 33.3 °F 37.6 °F 99% 29.76 in 2.5 mi NE 5.8 mph - N/A   Mostly Cloudy
9:15 PM 37.8 °F 35.3 °F 37.6 °F 99% 29.76 in 2.5 mi NE 3.5 mph - N/A   Scattered Clouds
9:35 PM 37.8 °F 32.5 °F 37.8 °F 100% 29.74 in 2.0 mi NE 6.9 mph - N/A   Mostly Cloudy
9:55 PM 38.8 °F 33.8 °F 38.8 °F 100% 29.73 in 1.2 mi NE 6.9 mph - N/A   Overcast
10:15 PM 38.7 °F 32.4 °F 38.7 °F 100% 29.72 in 0.2 mi NE 9.2 mph - N/A Fog Fog
10:35 PM 38.3 °F 32.5 °F 38.3 °F 100% 29.71 in 0.2 mi ENE 8.1 mph - N/A Fog Fog
10:55 PM 38.3 °F 33.9 °F 38.3 °F 100% 29.71 in 0.2 mi NE 5.8 mph - N/A   Unknown
11:15 PM 38.3 °F 34.8 °F 38.3 °F 100% 29.69 in 0.2 mi ENE 4.6 mph - N/A   Unknown
11:35 PM 38.3 °F 34.8 °F 38.3 °F 100% 29.68 in 0.2 mi ENE 4.6 mph - N/A   Unknown
11:55 PM 38.3 °F 33.9 °F 38.3 °F 100% 29.67 in 0.2 mi NE 5.8 mph - N/A Fog Fog